{"data":{"norad_id":62742,"epoch":"2026-09-21T18:06:54.854784Z","epoch_age_seconds":62930,"freshness":"FRESH","line1":"1 62742U 25014H   26264.75480156  .00009221  00000+0  34417-3 0  9994","line2":"2 62742  43.0030 127.0613 0001359 270.4966  89.5730 15.27583157 93249","mean_motion":15.27583157,"eccentricity":0.0001359,"inclination_deg":43.003,"raan_deg":127.0613,"arg_perigee_deg":270.4966,"mean_anomaly_deg":89.573,"bstar":0.00034417,"rev_number":9324,"period_min":94.266553896025,"perigee_km":482.10720895644,"apogee_km":483.97207676797,"semimajor_km":6861.1766428622,"source":"CELESTRAK","updated_at":"2026-09-22T09:00:49.657338Z"}}